Tracking 19176 objects as of 27-May-2018
HD Live streaming from Space Station
objects crossing your sky now

FENGYUN 1C DEB

Track FENGYUN 1C DEB now!
10-day predictions


NORAD ID: 29870
Int'l Code: 1999-025FQ
Perigee: 717.5 km
Apogee: 893.3 km
Inclination: 98.5 °
Period: 100.8 minutes
Semi major axis: 7176 km
RCS: 0.068 m2 (small)
Launch date: May 10, 1999
Source: People's Republic of China (PRC)
Launch site: Taiyaun Space Center, China (TSC)

Note: This is SATELLITE DEBRIS
aabbcc
Your satellite tracking list
Your tracking list is empty




NASA's NSSDC Master Catalog

Two Line Element Set (TLE):
1 29870U 99025FQ  18146.68817779 -.00000024  00000-0  69243-5 0  9990
2 29870  98.4529 188.4766 0122451  42.8609  68.9167 14.28055139592415
Source of the keplerian elements: AFSPC